(467410) = 2005 KE11

Discovered at Catalina on 2005-05-30 by CSS.

Orbit

Orbit type: Main Belt

Note: WebGL enabled browser required.

epoch2022-08-09.0
epoch JD2459800.5
perihelion date2021-06-15.13417
perihelion JD2459380.63417
argument of perihelion (°)84.14165
ascending node (°)117.37606
inclination (°)21.84427
eccentricity0.3256315
perihelion distance (AU)2.0921332
Tisserand w.r.t. Jupiter3.0
ΔV w.r.t. Earth (km/sec)11.2
semimajor axis (AU)3.1023589
mean anomaly (°)75.73146
mean daily motion (°/day)0.18037060
aphelion distance (AU)4.113
period (years)5.46
P-vector [x]-0.86687702
P-vector [y]-0.45362248
P-vector [z]0.20676287
Q-vector [x]0.37329684
Q-vector [y]-0.86555253
Q-vector [z]-0.33386866
absolute magnitude16.72
phase slope0.15
uncertainty0
referenceMPO 713102
observations used252
oppositions7
arc length (days)6307
first opposition used2005
last opposition used2022
residual rms (arc-secs)0.80
perturbers coarse indicatorM-v
perturbers precise indicator003Ek
first observation date used2005-05-12.0
last observation date used2022-08-18.0
computer nameMPCLINUX
Minimum Orbit Intersection Distances (in AU)
for orbit epoch: 2459800.5, reference: E2022-Q26
Mercury1.69555
Venus1.4282
Earth1.21932
Mars0.70938
Jupiter1.65732
Saturn5.57352
Uranus15.85
Neptune26.0395

Observations

259 total observations over interval: 2005 05 12.38976 – 2022 08 18.366566
These data are available for download (format description).

Date (UT) J2000 RA J2000 Dec Magn Location Ref
2005 05 12.38976 16 46 10.26 +10 49 31.6 19.5   704 – Lincoln Laboratory ETS, New Mexico MPS 135626
2005 05 12.40034 16 46 09.69 +10 49 30.2 19.7   704 – Lincoln Laboratory ETS, New Mexico MPS 135626
2005 05 12.41060 16 46 09.24 +10 49 30.0 19.8   704 – Lincoln Laboratory ETS, New Mexico MPS 135626
2005 05 12.42090 16 46 08.73 +10 49 27.9 20.1   704 – Lincoln Laboratory ETS, New Mexico MPS 135626
2005 05 30.39615 16 30 57.09 +09 20 30.9 19.7 V 703 – Catalina Sky Survey MPS 135626
2005 05 30.40263 16 30 56.59 +09 20 29.4 19.7 V 703 – Catalina Sky Survey MPS 135626
2005 05 30.40907 16 30 56.16 +09 20 24.9 19.7 V 703 – Catalina Sky Survey MPS 135626
2005 05 30.41551 16 30 55.94 +09 20 21.5 19.5 V 703 – Catalina Sky Survey MPS 135626
2005 06 01.26850 16 29 18.61 +09 04 44.5 19.0   704 – Lincoln Laboratory ETS, New Mexico MPS 135626
2005 06 01.27881 16 29 17.95 +09 04 39.4 20.2   704 – Lincoln Laboratory ETS, New Mexico MPS 135626
2005 06 01.28913 16 29 17.37 +09 04 34.6 20.0   704 – Lincoln Laboratory ETS, New Mexico MPS 135626
2005 06 01.30956 16 29 16.29 +09 04 23.5 19.7   704 – Lincoln Laboratory ETS, New Mexico MPS 135626
2005 06 02.27951 16 28 25.48 +08 55 45.5 19.7   704 – Lincoln Laboratory ETS, New Mexico MPS 135626
2005 06 02.28984 16 28 24.99 +08 55 40.6 20.2   704 – Lincoln Laboratory ETS, New Mexico MPS 135626
2005 06 02.30028 16 28 24.36 +08 55 35.6 19.9   704 – Lincoln Laboratory ETS, New Mexico MPS 135626
2005 06 02.31063 16 28 23.88 +08 55 28.6 19.9   704 – Lincoln Laboratory ETS, New Mexico MPS 135626
2005 06 25.32302 16 12 17.01 +04 15 30.6 20.0   644 – Palomar Mountain/NEAT MPS 137096
2005 06 25.35184 16 12 16.17 +04 15 05.4 19.7   644 – Palomar Mountain/NEAT MPS 137096
2005 06 25.38961 16 12 15.07 +04 14 32.6 20.0   644 – Palomar Mountain/NEAT MPS 137096
2010 02 13.40588 10 26 13.88 +29 53 42.5 19.8 V 703 – Catalina Sky Survey MPS 313197
2010 02 13.41347 10 26 13.63 +29 53 50.0 19.5 V 703 – Catalina Sky Survey MPS 313197
2010 02 13.42098 10 26 13.30 +29 53 57.1 19.9 V 703 – Catalina Sky Survey MPS 313197
2010 02 13.42851 10 26 12.98 +29 54 02.8 19.7 V 703 – Catalina Sky Survey MPS 313197
2010 02 19.28983 10 22 03.79 +31 26 31.0 19.5 V 703 – Catalina Sky Survey MPS 313197
2010 02 19.29788 10 22 03.50 +31 26 38.2 19.6 V 703 – Catalina Sky Survey MPS 313197
2010 02 19.30594 10 22 03.07 +31 26 44.9 19.5 V 703 – Catalina Sky Survey MPS 313197
2010 02 19.31383 10 22 02.67 +31 26 51.7 19.9 V 703 – Catalina Sky Survey MPS 313197
2010 05 09.591694 10 22 32.94 +34 12 54.5   C51 – WISE MPS 341796
2010 05 09.723999 10 22 41.75 +34 11 46.9   C51 – WISE MPS 341796
2010 05 09.856302 10 22 50.64 +34 10 39.6   C51 – WISE MPS 341796
2010 05 09.988606 10 22 59.49 +34 09 31.7   C51 – WISE MPS 341796
2010 05 10.120911 10 23 08.37 +34 08 23.7   C51 – WISE MPS 341796
2010 05 10.186999 10 23 12.83 +34 07 49.9   C51 – WISE MPS 341796
2010 05 10.253215 10 23 17.26 +34 07 15.4   C51 – WISE MPS 341796
2010 05 10.319303 10 23 21.73 +34 06 41.6   C51 – WISE MPS 341796
2010 05 10.385520 10 23 26.20 +34 06 07.4   C51 – WISE MPS 341796
2010 05 10.451608 10 23 30.67 +34 05 33.5   C51 – WISE MPS 341796
2010 05 10.517823 10 23 35.14 +34 04 59.6   C51 – WISE MPS 341796
2010 05 10.583912 10 23 39.65 +34 04 24.8   C51 – WISE MPS 341796
2010 05 10.716215 10 23 48.61 +34 03 16.2   C51 – WISE MPS 341796
2010 05 10.84852 10 23 57.67 +34 02 07.2   C51 – WISE MPS 341796
2010 05 10.980824 10 24 06.67 +34 00 57.9   C51 – WISE MPS 341796
2010 05 11.113128 10 24 15.74 +33 59 48.7   C51 – WISE MPS 341796
2011 08 01.39069 20 45 32.929 -24 22 58.53 20.9 r F51 – Pan-STARRS 1, Haleakala MPS 387993
2011 08 01.40039 20 45 32.407 -24 23 03.70 20.7 r F51 – Pan-STARRS 1, Haleakala MPS 387993
2011 08 01.41152 20 45 31.805 -24 23 09.66 21.2 g F51 – Pan-STARRS 1, Haleakala MPS 387993
2011 08 01.42170 20 45 31.276 -24 23 15.05 21.5 g F51 – Pan-STARRS 1, Haleakala MPS 387993
2016 04 19.56125 17 54 14.227 +02 11 50.01 20.4 i F51 – Pan-STARRS 1, Haleakala MPS 703747
2016 04 19.57203 17 54 14.357 +02 11 51.83 20.4 i F51 – Pan-STARRS 1, Haleakala MPS 703747
2016 04 19.58278 17 54 14.478 +02 11 53.35 20.4 i F51 – Pan-STARRS 1, Haleakala MPS 703747
2016 05 13.55497 17 50 56.376 +02 27 38.57 20.1 w F51 – Pan-STARRS 1, Haleakala MPS 709961
2016 05 13.56560 17 50 56.035 +02 27 37.52 20.0 w F51 – Pan-STARRS 1, Haleakala MPS 709961
2016 05 13.57621 17 50 55.692 +02 27 36.42 20.0 w F51 – Pan-STARRS 1, Haleakala MPS 709961
2016 05 13.58692 17 50 55.346 +02 27 35.36 20.0 w F51 – Pan-STARRS 1, Haleakala MPS 709961
2016 06 04.65038 17 34 39.26 +00 48 57.8 20.0 R D29 – Purple Mountain Observatory, XuYi Station MPS 716644
2016 06 06.42406 17 33 02.15 +00 35 29.9 19.7 V G96 – Mt. Lemmon Survey MPS 716644
2016 06 06.42643 17 33 01.98 +00 35 28.6 19.8 V G96 – Mt. Lemmon Survey MPS 716644
2016 06 06.43116 17 33 01.72 +00 35 26.0 19.6 V G96 – Mt. Lemmon Survey MPS 716644
2016 06 09.50781 17 30 11.884 +00 10 12.59 19.8 w F51 – Pan-STARRS 1, Haleakala MPS 716644
2016 06 09.52007 17 30 11.173 +00 10 06.28 19.8 w F51 – Pan-STARRS 1, Haleakala MPS 716644
2016 06 09.53231 17 30 10.470 +00 09 59.97 19.7 w F51 – Pan-STARRS 1, Haleakala MPS 716644
2016 06 12.29146 17 27 37.75 -00 14 36.2 19.5 V G96 – Mt. Lemmon Survey MPS 716644
2016 06 12.29723 17 27 37.39 -00 14 39.4 19.1 V G96 – Mt. Lemmon Survey MPS 716644
2016 06 12.30302 17 27 37.09 -00 14 42.8 19.6 V G96 – Mt. Lemmon Survey MPS 716644
2016 06 12.30882 17 27 36.74 -00 14 45.9 19.7 V G96 – Mt. Lemmon Survey MPS 716644
2016 06 13.28559 17 26 42.83 -00 23 53.5 19.7 r G45 – Space Surveillance Telescope, Atom Site MPS 716644
2016 06 13.28916 17 26 42.58 -00 23 56.0 20.2 r G45 – Space Surveillance Telescope, Atom Site MPS 716644
2016 06 13.29445 17 26 42.29 -00 23 59.0 20.4 r G45 – Space Surveillance Telescope, Atom Site MPS 716644
2016 06 13.29886 17 26 42.05 -00 24 01.7 20.0 r G45 – Space Surveillance Telescope, Atom Site MPS 716644
2016 06 13.30745 17 26 41.52 -00 24 06.3 20.3 r G45 – Space Surveillance Telescope, Atom Site MPS 716644
2016 07 03.22907 17 10 26.78 -04 07 09.3 19.6 V G96 – Mt. Lemmon Survey MPS 719351
2016 07 03.23494 17 10 26.52 -04 07 14.2 19.8 V G96 – Mt. Lemmon Survey MPS 719351
2016 07 03.23776 17 10 26.38 -04 07 16.1 20.6 r G45 – Space Surveillance Telescope, Atom Site MPS 719351
2016 07 03.24075 17 10 26.28 -04 07 18.4 20.0 V G96 – Mt. Lemmon Survey MPS 719351
2016 07 03.24663 17 10 26.03 -04 07 23.2 20.0 V G96 – Mt. Lemmon Survey MPS 719351
2016 07 03.25757 17 10 25.56 -04 07 31.0 20.9 r G45 – Space Surveillance Telescope, Atom Site MPS 719351
2016 07 03.26252 17 10 25.29 -04 07 34.9 20.3 r G45 – Space Surveillance Telescope, Atom Site MPS 719351
2016 07 03.26737 17 10 25.13 -04 07 38.6 20.2 r G45 – Space Surveillance Telescope, Atom Site MPS 719351
2016 07 09.15740 17 06 59.56 -05 22 12.1 19.9 V G96 – Mt. Lemmon Survey MPS 721338
2016 07 09.16318 17 06 59.37 -05 22 16.6 19.9 V G96 – Mt. Lemmon Survey MPS 721338
2016 07 09.16897 17 06 59.11 -05 22 21.0 19.9 V G96 – Mt. Lemmon Survey MPS 721338
2016 07 09.17476 17 06 58.98 -05 22 25.4 20.3 V G96 – Mt. Lemmon Survey MPS 721338
2019 11 26.41300 04 53 04.613 -00 12 07.57 21.7 w F51 – Pan-STARRS 1, Haleakala MPS 1087072
2019 11 26.42583 04 53 03.963 -00 12 07.79 21.9 w F51 – Pan-STARRS 1, Haleakala MPS 1087072
2020 11 22.62324 10 39 39.705 +15 05 53.00 21.5 w F51 – Pan-STARRS 1, Haleakala MPS 1327704
2020 11 22.62847 10 39 40.141 +15 05 52.60 21.5 w F51 – Pan-STARRS 1, Haleakala MPS 1327704
2020 11 22.63897 10 39 41.014 +15 05 53.16 21.6 w F51 – Pan-STARRS 1, Haleakala MPS 1327704
2020 11 25.59493 10 43 46.750 +15 08 02.07 21.5 w F52 – Pan-STARRS 2, Haleakala MPS 1327704
2020 11 25.61798 10 43 48.627 +15 08 03.56 21.5 w F52 – Pan-STARRS 2, Haleakala MPS 1327704
2020 11 25.62952 10 43 49.564 +15 08 03.83 21.5 w F52 – Pan-STARRS 2, Haleakala MPS 1327704
2020 12 15.520628 11 09 18.59 +15 59 46.6 21.12 G G96 – Mt. Lemmon Survey MPS 1327704
2020 12 15.524866 11 09 18.90 +15 59 48.4 21.11 G G96 – Mt. Lemmon Survey MPS 1327704
2020 12 15.529100 11 09 19.17 +15 59 49.2 21.10 G G96 – Mt. Lemmon Survey MPS 1327704
2020 12 15.533339 11 09 19.47 +15 59 50.6 21.27 G G96 – Mt. Lemmon Survey MPS 1327704
2020 12 23.478969 11 18 13.10 +16 42 50.9 20.75 G G96 – Mt. Lemmon Survey MPS 1327704
2020 12 23.484588 11 18 13.43 +16 42 53.6 21.37 G G96 – Mt. Lemmon Survey MPS 1327704
2020 12 23.490205 11 18 13.81 +16 42 55.7 21.10 G G96 – Mt. Lemmon Survey MPS 1327704
